Regional Weather Roundup
Issued by NWS Bismarck, ND

Home | Current Version | Previous Version | Text Only | Print | Product List | Glossary On
Versions: 1 2 3 4 5 6 7 8 9 10 11 12 13 14 15 16 17 18 19 20 21 22 23 24 25 26 27 28 29 30 31 32 33 34 35 36 37 38 39 40 41 42 43 44 45 46 47 48 49 50
000
ASUS43 KBIS 291120
RWRBIS

NWR BROADCAST TEXT
NATIONAL WEATHER SERVICE BISMARCK ND
600 AM CDT SUN MAR 29 2015

NOTE: "FAIR" INDICATES FEW OR NO CLOUDS BELOW 12,000 FEET WITH NO
SIGNIFICANT WEATHER AND/OR OBSTRUCTIONS TO VISIBILITY.


CITY           SKY/WX    TMP DP  RH WIND       PRES   REMARKS
WILLISTON      CLEAR     37  33  85 NW16      30.00R
MINOT          CLEAR     36  31  82 NW21G29   29.83R
MINOT AFB      CLEAR     36  35  99 NW23G30   29.82R
BISMARCK       CLOUDY    41  36  82 NW31G45   29.81R
DICKINSON      CLEAR     35  31  85 NW17      29.97R
GARRISON         N/A     37  33  85 NW31G38   29.84R
HETTINGER ARPT PTCLDY    37  32  82 NW30G39   29.98R
JAMESTOWN      LGT RAIN  40  39  97 NW29G40   29.62R FOG
BEACH          FAIR      36  36 100 W18       30.07R
CARRINGTON     CLOUDY    39  39 100 NW26G33   29.68R
CROSBY         FAIR      34  34 100 NW16      29.97R
HARVEY         CLOUDY    37  37 100 NW28G43   29.74R
HAZEN          FAIR      37  32  81 NW15G30   29.91R
LINTON         CLOUDY    39  39 100 NW28G43   29.77R
MANDAN         CLOUDY    39  36  87 NW30G38   29.83R
OAKES          MIX PCPN  41  41 100 W18G24    29.57R
RUGBY          CLOUDY    37  36  93 NW20G26   29.75R
TIOGA          FAIR      32  32 100 NW16G22   29.98R
WATFORD CITY   FAIR      36  32  87 NW15      29.98R
$$

CITY           SKY/WX    TMP DP  RH WIND       PRES   REMARKS
GRAND FORKS    CLOUDY    41  37  86 N30G46    29.52R
GRAND FORKS AF MIX PCPN  41  36  81 N23G35    29.55R
DEVILS LAKE    CLOUDY    37  32  81 N26G39    29.67R
FARGO          RAIN      47  43  86 NW24G30   29.47R FOG
CANDO          CLOUDY    37  34  87 N30G39    29.69R
CAVALIER       CLOUDY    37  34  87 NW26G35   29.58R
GWINNER        CLOUDY    45  45 100 W18         N/A
ROLLA          CLOUDY    36  36 100 NW24G33   29.71R
WALHALLA         N/A     36  36 100 NW25G32   29.62R
$$

CITY           SKY/WX    TMP DP  RH WIND       PRES   REMARKS
ABERDEEN       PTCLDY    46  37  71 W23G32    29.63R
MOBRIDGE       CLOUDY    43  38  82 NW32G44   29.78R
BUFFALO          N/A     40  35  83 NW41G58   29.93R
RAPID CITY     CLEAR     45  28  51 NW56G75   29.97R
GLASGOW        CLEAR     37  33  85 NW5       30.08R
SIDNEY         CLEAR     37  32  81 W10       30.06R
WOLF POINT     CLEAR     38  34  85 W9        30.07R
GLENDIVE         N/A     36  30  80 W7        30.11R
MILES CITY     CLOUDY    42  35  76 NW9       30.16S
BAKER          CLEAR     36  32  85 NW16      30.09R
$$

CITY           SKY/WX    TMP DP  RH WIND       PRES   REMARKS
BILLINGS       CLEAR     44  23  43 W20       30.20R
GREAT FALLS    CLEAR     39  28  64 SW15      30.16F
REGINA         CLEAR     32  30  93 W9        29.96R
ESTEVAN        CLEAR     34  32  93 NW18G26   29.93R
$$




USA.gov is the U.S. government's official web portal to all federal, state and local government web resources and services.